AFL1524 UNBB-UNBG

Flight info

Callsign AFL1524
Flight time 0h 26m
Altitude 23000
Route INBOK B206 KUDEB
Aircraft A320/M-SDE3FGHIRWY/LB1

Departure

Time 2026-04-18 09:27
Airport Barnaul Gherman Titov International Airport (UNBB)

Arrival

Time 2026-04-18 09:53
Airport Gorno-Altaysk Airport (UNBG)
Time Latitude Longitude Altitude Speed Heading
2026-04-18 09:23 53.36377 83.55174 841 ft 0 kts 68°
2026-04-18 09:24 53.36382 83.55191 834 ft 4 kts 66°
2026-04-18 09:24 53.36416 83.55222 834 ft 7 kts 360°
2026-04-18 09:24 53.36458 83.55256 842 ft 8 kts 56°
2026-04-18 09:24 53.36484 83.55353 838 ft 11 kts 67°
2026-04-18 09:25 53.36522 83.55508 839 ft 17 kts 68°
2026-04-18 09:25 53.36573 83.55717 838 ft 22 kts 68°
2026-04-18 09:25 53.36632 83.55946 835 ft 14 kts 66°
2026-04-18 09:25 53.36717 83.55997 838 ft 15 kts 339°
2026-04-18 09:26 53.36798 83.55911 837 ft 12 kts 286°
2026-04-18 09:26 53.36766 83.55754 832 ft 18 kts 248°
2026-04-18 09:26 53.36637 83.55241 831 ft 83 kts 246°
2026-04-18 09:26 53.36332 83.54015 836 ft 142 kts 247°
2026-04-18 09:27 53.35916 83.52412 1297 ft 151 kts 245°
2026-04-18 09:27 53.35537 83.50767 2086 ft 154 kts 252°
2026-04-18 09:27 53.35733 83.48890 2489 ft 187 kts 301°
2026-04-18 09:27 53.36903 83.47645 2791 ft 222 kts 349°
2026-04-18 09:28 53.38486 83.48086 3206 ft 248 kts 31°
2026-04-18 09:28 53.39687 83.50242 3694 ft 265 kts 69°
2026-04-18 09:28 53.40156 83.53260 4450 ft 273 kts 85°
2026-04-18 09:28 53.40332 83.56487 5221 ft 284 kts 88°
2026-04-18 09:29 53.40470 83.59839 6048 ft 292 kts 86°
2026-04-18 09:29 53.40673 83.63256 6955 ft 298 kts 83°
2026-04-18 09:29 53.40965 83.66714 7818 ft 302 kts 80°
2026-04-18 09:29 53.41332 83.70209 8707 ft 306 kts 77°
2026-04-18 09:30 53.41750 83.73717 9597 ft 309 kts 76°
2026-04-18 09:30 53.42199 83.77266 10462 ft 313 kts 75°
2026-04-18 09:30 53.42511 83.81009 10813 ft 338 kts 90°
2026-04-18 09:30 53.42031 83.84978 11165 ft 357 kts 115°
2026-04-18 09:31 53.40662 83.88458 11822 ft 360 kts 136°
2026-04-18 09:31 53.38937 83.91548 12574 ft 367 kts 130°
2026-04-18 09:31 53.37558 83.95263 13312 ft 375 kts 118°
2026-04-18 09:31 53.36758 83.97841 13814 ft 378 kts 118°
2026-04-18 09:32 53.35564 84.01782 14500 ft 383 kts 117°
2026-04-18 09:32 53.34376 84.05813 15156 ft 388 kts 116°
2026-04-18 09:32 53.33195 84.09886 15798 ft 392 kts 116°
2026-04-18 09:32 53.32000 84.14021 16428 ft 397 kts 116°
2026-04-18 09:33 53.30787 84.18199 17069 ft 402 kts 116°
2026-04-18 09:33 53.29556 84.22420 17692 ft 406 kts 116°
2026-04-18 09:33 53.28120 84.26515 18301 ft 411 kts 126°
2026-04-18 09:33 53.26285 84.30190 18879 ft 414 kts 137°
2026-04-18 09:34 53.24112 84.33372 19403 ft 417 kts 143°
2026-04-18 09:34 53.21862 84.36468 19933 ft 422 kts 142°
2026-04-18 09:34 53.19586 84.39605 20472 ft 426 kts 142°
2026-04-18 09:34 53.17294 84.42778 21005 ft 431 kts 142°
2026-04-18 09:35 53.14977 84.45990 21537 ft 435 kts 142°
2026-04-18 09:35 53.12640 84.49225 22060 ft 440 kts 142°
2026-04-18 09:35 53.10243 84.52532 22581 ft 444 kts 142°
2026-04-18 09:35 53.07878 84.55782 23099 ft 448 kts 142°
2026-04-18 09:36 53.05463 84.59101 23364 ft 451 kts 142°
2026-04-18 09:36 53.03033 84.62436 23420 ft 444 kts 142°
2026-04-18 09:36 53.00657 84.65686 23412 ft 441 kts 142°
2026-04-18 09:36 52.98288 84.68921 23413 ft 441 kts 142°
2026-04-18 09:37 52.95919 84.72154 23409 ft 441 kts 142°
2026-04-18 09:37 52.93554 84.75380 23418 ft 441 kts 142°
2026-04-18 09:37 52.91186 84.78604 23414 ft 440 kts 142°
2026-04-18 09:37 52.88821 84.81819 23309 ft 438 kts 142°
2026-04-18 09:38 52.86470 84.85013 22614 ft 433 kts 142°
2026-04-18 09:38 52.84183 84.88120 22108 ft 418 kts 142°
2026-04-18 09:38 52.81968 84.91126 21598 ft 408 kts 142°
2026-04-18 09:38 52.79771 84.94097 21076 ft 408 kts 142°
2026-04-18 09:39 52.77573 84.97061 20554 ft 408 kts 142°
2026-04-18 09:39 52.75374 85.00020 20032 ft 408 kts 142°
2026-04-18 09:39 52.73176 85.02976 19514 ft 407 kts 142°
2026-04-18 09:39 52.70978 85.05928 18993 ft 407 kts 142°
2026-04-18 09:40 52.68781 85.08878 18452 ft 407 kts 142°
2026-04-18 09:40 52.66594 85.11811 17931 ft 403 kts 142°
2026-04-18 09:40 52.64458 85.14674 17434 ft 388 kts 143°
2026-04-18 09:40 52.62402 85.17429 16964 ft 374 kts 143°
2026-04-18 09:41 52.60415 85.20088 16515 ft 362 kts 143°
2026-04-18 09:41 52.58490 85.22657 16071 ft 351 kts 143°
2026-04-18 09:41 52.56595 85.25179 15638 ft 351 kts 143°
2026-04-18 09:41 52.54667 85.27737 15198 ft 352 kts 143°
2026-04-18 09:42 52.52758 85.30265 14762 ft 353 kts 143°
2026-04-18 09:42 52.50846 85.32797 14327 ft 353 kts 143°
2026-04-18 09:42 52.48932 85.35331 13835 ft 353 kts 143°
2026-04-18 09:42 52.47059 85.37827 13414 ft 340 kts 142°
2026-04-18 09:43 52.45384 85.40496 13031 ft 334 kts 136°
2026-04-18 09:43 52.43758 85.43213 12635 ft 333 kts 136°
2026-04-18 09:43 52.42132 85.45913 12238 ft 332 kts 137°
2026-04-18 09:43 52.40507 85.48595 11837 ft 331 kts 136°
2026-04-18 09:44 52.38887 85.51267 11434 ft 330 kts 137°
2026-04-18 09:44 52.37268 85.53933 11036 ft 330 kts 137°
2026-04-18 09:44 52.35653 85.56592 10620 ft 329 kts 137°
2026-04-18 09:44 52.34061 85.59204 10457 ft 319 kts 137°
2026-04-18 09:45 52.32513 85.61746 10162 ft 314 kts 137°
2026-04-18 09:45 52.30971 85.64279 9748 ft 311 kts 137°
2026-04-18 09:45 52.29463 85.66762 9105 ft 306 kts 137°
2026-04-18 09:45 52.27970 85.69219 8452 ft 302 kts 138°
2026-04-18 09:46 52.26503 85.71624 7804 ft 297 kts 138°
2026-04-18 09:46 52.25054 85.73993 7183 ft 292 kts 139°
2026-04-18 09:46 52.23634 85.76316 6581 ft 286 kts 139°
2026-04-18 09:46 52.22244 85.78593 5953 ft 280 kts 139°
2026-04-18 09:47 52.20882 85.80816 5338 ft 274 kts 140°
2026-04-18 09:47 52.19664 85.83064 5174 ft 255 kts 129°
2026-04-18 09:47 52.18828 85.85528 5112 ft 238 kts 119°
2026-04-18 09:47 52.18128 85.87941 5054 ft 234 kts 120°
2026-04-18 09:48 52.17427 85.90331 4994 ft 233 kts 120°
2026-04-18 09:48 52.16727 85.92717 4937 ft 233 kts 120°
2026-04-18 09:48 52.15964 85.95014 4860 ft 228 kts 135°
2026-04-18 09:48 52.14721 85.96338 4769 ft 206 kts 171°
2026-04-18 09:49 52.13356 85.96247 4496 ft 195 kts 205°
2026-04-18 09:49 52.12135 85.95312 4223 ft 195 kts 207°
2026-04-18 09:49 52.10920 85.94400 3957 ft 189 kts 207°
2026-04-18 09:49 52.09739 85.93500 3722 ft 187 kts 207°
2026-04-18 09:50 52.08569 85.92600 3481 ft 186 kts 206°
2026-04-18 09:50 52.07398 85.91699 3373 ft 188 kts 207°
2026-04-18 09:50 52.06231 85.90803 3162 ft 180 kts 207°
2026-04-18 09:50 52.05112 85.89941 2877 ft 177 kts 207°
2026-04-18 09:51 52.04011 85.89094 2600 ft 174 kts 206°
2026-04-18 09:51 52.02937 85.88269 2330 ft 165 kts 207°
2026-04-18 09:51 52.01940 85.87504 2037 ft 152 kts 207°
2026-04-18 09:51 52.01014 85.86793 1782 ft 143 kts 207°
2026-04-18 09:52 52.00132 85.86117 1560 ft 138 kts 207°
2026-04-18 09:52 51.99270 85.85453 1358 ft 136 kts 207°
2026-04-18 09:52 51.98418 85.84799 1121 ft 135 kts 206°
2026-04-18 09:52 51.97575 85.84148 989 ft 129 kts 206°
2026-04-18 09:53 51.96987 85.83702 982 ft 51 kts 205°
2026-04-18 09:53 51.96813 85.83586 985 ft 17 kts 171°
2026-04-18 09:53 51.96795 85.83755 982 ft 19 kts 85°
2026-04-18 09:53 51.96767 85.83927 986 ft 10 kts 104°
2026-04-18 09:54 51.96815 85.84019 984 ft 13 kts 26°
2026-04-18 09:54 51.96875 85.84048 985 ft 8 kts 335°
2026-04-18 09:54 51.96888 85.84019 984 ft 0 kts 300°